Regional Weather Roundup
Issued by NWS Columbia, SC

Home | Current Version | Previous Version | Text Only | Print | Product List | Glossary On
Versions: 1 2 3 4 5 6 7 8 9 10 11 12 13 14 15 16 17 18 19 20 21 22 23 24 25 26 27 28 29 30 31 32 33 34 35 36 37 38 39 40 41 42 43 44 45 46 47 48 49 50
000
ASUS42 KCAE 260310
RWRCAE
REGIONAL WEATHER ROUNDUP
NATIONAL WEATHER SERVICE COLUMBIA SC
1100 PM EDT TUE JUL 25 2017

NOTE: "FAIR" INDICATES FEW OR NO CLOUDS BELOW 12,000 FEET WITH NO
SIGNIFICANT WEATHER AND/OR OBSTRUCTIONS TO VISIBILITY.

NOT ALL STATIONS ARE QUALITY CONTROLLED BY THE NATIONAL
WEATHER SERVICE. USE DATA WITH CAUTION...ESPECIALLY
DEWPOINT OBSERVATIONS.

SCZ001>056-GAZ040-063>065-077-260400-
...UPSTATE SOUTH CAROLINA...

CITY           SKY/WX    TMP DP  RH WIND       PRES   REMARKS
ANDERSON       CLOUDY    79  73  82 CALM      30.11R
LIBERTY        PTCLDY    78  71  80 N3        30.13R
SPARTANBURG    PTCLDY    77  70  78 CALM      30.10S
CLEMSON        CLOUDY    82  75  79 CALM      30.12S
GREENVILLE     CLOUDY    85  70  60 SW5       30.13R
GREENWOOD      PTCLDY    79  71  76 S7        30.12R
GREER          MOCLDY    80  73  79 CALM      30.11R
ROCK HILL      PTCLDY    80  72  76 SE3       30.12R
CHESTER        CLEAR     77  72  83 CALM      30.12R
LAURENS        PTCLDY    81  72  74 SE5       30.11R


...CENTRAL SOUTH CAROLINA...

CITY           SKY/WX    TMP DP  RH WIND       PRES   REMARKS
COLUMBIA APT   MOCLDY    78  70  76 CALM      30.08R
COLUMBIA OWENS MOCLDY    77  74  90 CALM      30.10R
MCENTIRE ANGB  CLOUDY    75  74  96 CALM      30.09R
ORANGEBURG     CLOUDY    78  72  81 W5        30.10R
SUMTER SHAW    CLOUDY    76  73  90 CALM      30.07R
NEWBERRY       PTCLDY    77  72  83 S3        30.14R
AIKEN          FAIR      73  72  94 CALM      30.14R
BARNWELL       FAIR      77  73  88 CALM      30.11R
MANNING        FAIR      79  77  94 CALM      30.09R
CAMDEN         FAIR      77  72  83 CALM      30.10R
LANCASTER      CLEAR     77  73  88 CALM      30.11R
WINNSBORO      CLOUDY    73  70  88 CALM      30.10R


...EASTERN AND COASTAL SOUTH CAROLINA...

CITY           SKY/WX    TMP DP  RH WIND       PRES   REMARKS
MYRTLE BEACH   CLOUDY    80  76  87 W3        30.08R
N MYRTLE BCH   CLOUDY    80  78  94 CALM      30.07R
CONWAY         FAIR      73  72  94 CALM      30.09R
MARION         FAIR      77  72  83 CALM      30.08R
HARTSVILLE     FAIR      77  72  83 W3        30.09R
FLORENCE       CLOUDY    80  75  84 S3        30.09R
DARLINGTON     CLOUDY    80  76  87 CALM      30.09R
CHARLESTON APT MOCLDY    77  73  87 SW6       30.09R
MOUNT PLEASANT FAIR      81  79  94 NW6       30.09R
BEAUFORT       MOCLDY    77  76  96 CALM      30.09S


...EASTERN GEORGIA...

CITY           SKY/WX    TMP DP  RH WIND       PRES   REMARKS
AUGUSTA BUSH F CLOUDY    76  73  91 E3        30.10R
AUGUSTA DANIEL CLOUDY    77  69  76 CALM      30.11R
THOMSON        CLOUDY    73  70  91 W3        30.16R
WASHINGTON     FAIR     N/A N/A N/A SW5       30.11S
CLAXTON        FAIR      75  74  97 CALM      30.10F
SYLVANIA       CLOUDY    74  74 100 CALM      30.10F
STATESBORO     CLOUDY    75  75 100 CALM      30.09F
SAVANNAH       CLOUDY    77  75  93 W5        30.11R


...SOUTHERN NORTH CAROLINA...

CITY           SKY/WX    TMP DP  RH WIND       PRES   REMARKS
CHARLOTTE      MOCLDY    86  69  56 E3        30.12R
MONROE         CLOUDY    78  71  79 CALM      30.11R
ROCKINGHAM     CLOUDY    80  73  80 CALM      30.09R
RUTHERFORDTON  CLOUDY    78  76  94 CALM      30.14S
ASHEVILLE      TSTM      70  70 100 CALM      30.21F

$$



USA.gov is the U.S. government's official web portal to all federal, state and local government web resources and services.